STARLINK-4536

operational
NORAD ID: 53783 Int'l Des: 2022-111 Owner: SPXS Country: US Constellation: starlink
LEOCIRCULAR

About STARLINK-4536

Description loading...

Live Position

Loading 3D Globe...

Upcoming Passes

Altitude History

Altitude vs Time

uPlot chart will show altitude changes over time

Two-Line Element Set

1 53783U 22111L 25251.57147867 .00003027 00000-0 20810-3 0 9999
2 53783 53.2185 11.6019 0001078 91.5419 268.5697 15.08859812166200
Epoch: Sep 8, 2025 • Age: 13 hours

Current Status

Altitude 545.5 km
Velocity 7.60 km/s
Sub-Earth Point 53.37°N, 68.94°E
Launch Date Sep 11, 2022
Age 2.9 years
Type internet

Technical Details

Classification Payload
Mass 305.00 kg
Dry Mass 290.00 kg
Total Mass 305.00 kg
Length 0.20 m
Diameter 2.80 m
Span 9.00 m
Shape Box + pan
Manufacturer SPXS
Bus Type Starlink
Phase Status In Orbit
Owner/State SPXS/US

Large Constellations

Loading constellations...